COSMOS 2322

Satellite information

Favourite Embed

Satellite Type and Status

PAYLOADIN ORBIT

Key statistics

Satellite COSMOS 2322 at a glance.

Uptime

10782

Days in orbit

Revolutions

≈ 14.1

Per day

Orbit

LEO

Low Earth Orbit

Inclination

71.0

Latest

Satellite identification and parameters

Extended collection of information and parameters for COSMOS 2322.

Object identification

Identified? True

Debris? False

Object name: COSMOS 2322

International designator: 1995-058A

Object number (NORAD): 23704

Object ID (CCSDS): 23704

Country: COMMONWEALTH OF INDEPENDENT STATES (CIS)

Current information (Y/N): Y

RCS size: LARGE

Orbital parameters

Period: 101.857 minutes

Inclination: 70.9826 deg

SMA: 7224.721 km

Apoapsis: 852.388 km

Periapsis: 840.783 km

RAAN: 122.783 deg

Eccentricy: 0.0008032

Argument of periapsis: 44.5897 deg

Mean anomaly: 315.5869 deg

Mean motion: 14.13745313 rev/day

Mean motion (dot): 0.00000362 rev/day2

B* drag term: 0.00021644 1/REarth

Two-line elements (TLE)

Creation date: May 8, 2025, 3:01 a.m.

Reference frame: TEME

Reference center: EARTH

Epoch: May 7, 2025, 10:47 p.m. UTC

TLE line 0: 0 COSMOS 2322

TLE line 1: 1 23704U 95058A 25127.94964157 .00000362 00000-0 21644-3 0 9996

TLE line 2: 2 23704 70.9826 122.7830 0008032 44.5897 315.5869 14.13745313522843

Live tracking on map

Real-time ground track for satellite COSMOS 2322.

In-orbit conjunctions

A list of the most updated potential collisions computed for object COSMOS 2322.

Target Orbit TCA Probability of collision Miss distance Type
CZ-2C DEB SSO 2025-01-06 12:27:55 0.000540573 771.0 (m) DEBRIS
FENGYUN 1C DEB SSO 2024-11-05 19:28:48 0.0001311968 968.0 (m) DEBRIS
FENGYUN 1C DEB SSO 2024-10-16 08:45:07 0.0001604486 85.0 (m) DEBRIS
FENGYUN 1C DEB SSO 2024-09-05 08:44:27 0.0001893053 847.0 (m) DEBRIS
DMSP 5D-2 F11 DEB SSO 2024-06-04 11:35:22 0.0001354002 326.0 (m) DEBRIS

Associated space launch

Second generation ELING satellite

COSMOS 2322 was lifted into orbit during the mission ‘Zenit-2 | Tselina-2 17’, on board a Zenit-2 space rocket.

The launch took place on Oct. 31, 1995, 8:19 p.m. from 45/1.

For more information about the launch, click the button.

Launch to space Zenit-2 | Tselina-2 17
Zenit-2 | Tselina-2 17

Agency: N/A

Status: Launch Successful

Launch date: Oct. 31, 1995, 8:19 p.m. UTC

Rocket: Zenit-2

Launch pad: 45/1

Location: Baikonur Cosmodrome, Republic of Kazakhstan

...

Latest news about this satellite

There are no fresh news available about this satellite. Check back as we update our databases every day.


Newsletter sign-up

Weekly statistics, charts and insights to help you stay on top of the space industry.